Regional Weather Roundup
Issued by NWS Jackson, KY

Home | Current Version | Previous Version | Graphics & Text | Print | Product List | Glossary On
Versions: 1 2 3 4 5 6 7 8 9 10 11 12 13 14 15 16 17 18 19 20 21 22 23 24 25 26 27 28 29 30 31 32 33 34 35 36 37 38 39 40 41 42 43 44 45 46 47 48 49
000
ASUS43 KJKL 040410
RWRJKL

EAST KENTUCKY HOURLY WEATHER ROUNDUP
NATIONAL WEATHER SERVICE JACKSON KY
1200 AM EDT TUE AUG 04 2015

NOTE: "FAIR" INDICATES FEW OR NO CLOUDS BELOW 12,000 FEET WITH
NO SIGNIFICANT WEATHER AND/OR OBSTRUCTIONS TO VISIBILITY.

* THESE REPORTS ARE NOT UNDER NWS QUALITY CONTROL AND MAY NOT
  REPORT WEATHER SUCH AS PRECIPITATION AND FOG.

KYZ079-080-083-085-087-088-110-112-115-119-120-040500
...EASTERN KENTUCKY...

CITY           SKY/WX    TMP DP  RH WIND       PRES   REMARKS
JACKSON        TSTM      66  63  90 NW20G32   30.04R VSB 1/2
LONDON         CLEAR     80  67  64 SW6       29.97S
SOMERSET*      CLEAR     73  68  83 CALM      29.97R
MONTICELLO*    CLEAR     70  70 100 CALM      29.99R
MIDDLESBORO*   CLEAR     70  69  95 CALM      30.00R
HAZARD APT*    CLOUDY    75  64  69 N12       30.01R
BLACK MTN*       N/A     68  61  77 SW6         N/A
PIKEVILLE APT* LGT RAIN  68  64  88 CALM      30.01R
BIG SANDY*     RAIN      67  66  96 SW5       29.99F
MOREHEAD APT*  LGT RAIN  70  64  83 VRB6G22   29.97F
$$

KYZ035-036-041-042-044-050-067-078-099-040500
...CENTRAL KENTUCKY...

CITY           SKY/WX    TMP DP  RH WIND       PRES   REMARKS
MT STERLING*   CLOUDY    68  68 100 S6        29.98R
FLEMING/MASON* PTCLDY   N/A N/A N/A S7        29.94F
DANVILLE*      MOCLDY    75  72  88 S3        29.95S
RICHMOND*      MOCLDY    79  70  73 E13       29.95R
LEXINGTON      PTCLDY    75  67  76 E6        29.94R
FRANKFORT      PTCLDY    77  69  76 E7        29.92R
$$

KYZ091>093-OHZ055-061-077-WVZ005-015-034-035-042-040500
...SOUTHERN OHIO/WEST VIRGINIA...

CITY           SKY/WX    TMP DP  RH WIND       PRES   REMARKS
COVINGTON      CLOUDY    70  66  87 S3        29.92R
COLUMBUS       PTCLDY    70  62  76 W6        29.91R
DAYTON         MOCLDY    68  65  90 N6        29.94R
WILMINGTON     PTCLDY    67  63  87 SW3       29.93R
HUNTINGTON     TSTM      68  64  87 SW5       29.92R
CHARLESTON     CLOUDY    78  67  68 W20G35    29.91R THUNDER
PINEVILLE*     CLOUDY    69  68  98 MISG      30.06R
BECKLEY        CLOUDY    73  61  65 SW7       30.04R
BLUEFIELD      CLOUDY    73  58  59 W7        30.08R
$$

VAZ002-007-008-TNZ017-027-036-066-071-040500
...SOUTHWEST VIRGINIA/EAST TENNESSEE...

CITY           SKY/WX    TMP DP  RH WIND       PRES   REMARKS
WISE*          CLOUDY    72  59  64 SW5       30.08S
ABINGDON*      MOCLDY    70  61  73 CALM      30.05S
BRISTOL        PTCLDY    67  61  81 CALM      30.01S
KNOXVILLE      CLEAR     75  65  70 CALM      29.97S
OAK RIDGE      CLEAR     77  68  73 CALM      29.99S
CROSSVILLE     CLEAR     71  67  87 CALM      30.04R
NASHVILLE      CLEAR     80  69  69 CALM      29.95S
$$

...KEY TO REMARKS...
VSB - VISIBILITY IN MILES
WCI - WIND CHILL INDEX
HX  - HEAT INDEX

$$


USA.gov is the U.S. government's official web portal to all federal, state and local government web resources and services.